DW7787 Weather Reports


Display with metric or nautical units.
time (UTC)temp
F
wind
direction
speed
MPH
gust
MPH
rain 1hr
in
rain 24hr
in
rain mn
in
humidity
%
barometer
mb
20260905133908 79 183 1.0 3.0 0.00 0.00 0.00 86 1015.0
20260905133112 79 26 1.0 2.0 0.00 0.00 0.00 87 1015.1
20260905132907 78 223 1.0 2.0 0.00 0.00 0.00 88 1015.1
20260905132112 78 325 1.0 3.0 0.00 0.00 0.00 89 1014.9
20260905131609 78 350 1.0 4.0 0.00 0.00 0.00 89 1015.0
20260905131108 77 265 0.0 4.0 0.00 0.00 0.00 90 1015.0
20260905130608 77 296 0.0 3.0 0.00 0.00 0.00 91 1015.0
20260905130108 77 250 0.0 3.0 0.00 0.00 0.00 92 1015.0
20260905125901 76 261 0.0 2.0 0.00 0.00 0.00 93 1015.2
20260905125106 76 198 0.0 2.0 0.00 0.00 0.00 93 1015.3
20260905124608 76 302 0.0 2.0 0.00 0.00 0.00 93 1015.3
20260905124403 76 275 0.0 1.0 0.00 0.00 0.00 93 1015.2
20260905123607 76 235 0.0 1.0 0.00 0.00 0.00 93 1015.2
20260905123108 75 179 0.0 2.0 0.00 0.00 0.00 93 1015.2
20260905122608 75 156 0.0 2.0 0.00 0.00 0.00 93 1015.2
20260905122359 75 26 0.0 2.0 0.00 0.00 0.00 93 1015.2
20260905121606 75 26 0.0 2.0 0.00 0.00 0.00 93 1015.2
20260905121103 74 26 0.0 1.0 0.00 0.00 0.00 92 1015.3
20260905120603 74 26 0.0 1.0 0.00 0.00 0.00 92 1015.3
20260905120153 74 26 0.0 0.0 0.00 0.00 0.00 91 1015.2
20260905120136 74 26 0.0 1.0 0.00 0.00 0.00 92 1015.3
20260905115047 74 26 0.0 0.0 0.00 0.00 0.00 91 1015.1
20260905114633 74 26 0.0 1.0 0.00 0.00 0.00 91 1014.9
20260905114616 74 26 0.0 1.0 0.00 0.00 0.00 91 1014.9
20260905113540 74 26 0.0 1.0 0.00 0.00 0.00 91 1014.9
20260905113036 74 26 0.0 1.0 0.00 0.00 0.00 90 1014.8
20260905112535 74 26 0.0 1.0 0.00 0.00 0.00 90 1014.7
20260905112331 74 26 0.0 0.0 0.00 0.00 0.00 90 1014.7
20260905111530 74 26 0.0 0.0 0.00 0.00 0.00 90 1014.5
20260905111032 74 26 0.0 1.0 0.00 0.00 0.00 90 1014.4
20260905110535 74 26 0.0 1.0 0.00 0.00 0.00 90 1014.3
20260905110314 74 26 0.0 0.0 0.00 0.00 0.00 90 1014.2
20260905105529 74 26 0.0 0.0 0.00 0.00 0.00 89 1014.2
20260905105030 74 26 0.0 0.0 0.00 0.00 0.00 89 1014.2
20260905104530 75 26 0.0 1.0 0.00 0.00 0.00 89 1013.9
20260905104030 75 26 0.0 1.0 0.00 0.00 0.00 89 1013.9
20260905103919 75 26 0.0 1.0 0.00 0.00 0.00 89 1013.8
20260905103031 75 26 0.0 1.0 0.00 0.00 0.00 89 1013.7
20260905102925 75 26 0.0 1.0 0.00 0.00 0.00 89 1013.7
20260905102030 75 26 0.0 1.0 0.00 0.00 0.00 88 1013.7
20260905101532 75 26 0.0 1.0 0.00 0.00 0.00 88 1013.8
20260905101037 75 26 0.0 1.0 0.00 0.00 0.00 88 1013.7
20260905100527 75 26 0.0 1.0 0.00 0.00 0.00 88 1013.7
20260905100023 75 26 0.0 1.0 0.00 0.00 0.00 88 1013.6
20260905095520 76 26 0.0 0.0 0.00 0.00 0.00 88 1013.7
20260905095011 76 26 0.0 1.0 0.00 0.00 0.00 87 1013.7
20260905094733 76 26 0.0 1.0 0.00 0.00 0.00 87 1013.8
20260905094009 76 26 0.0 0.0 0.00 0.00 0.00 87 1013.8
20260905093510 76 26 0.0 0.0 0.00 0.00 0.00 87 1013.8
20260905093010 76 26 0.0 0.0 0.00 0.00 0.00 86 1013.9
20260905092505 76 26 0.0 0.0 0.00 0.00 0.00 86 1013.9
20260905092002 76 26 0.0 0.0 0.00 0.00 0.00 86 1013.9
20260905091502 76 26 0.0 0.0 0.00 0.00 0.00 86 1013.9
20260905091329 77 26 0.0 0.0 0.00 0.00 0.00 86 1014.0
20260905090504 77 26 0.0 0.0 0.00 0.00 0.00 86 1013.8
20260905090002 77 26 0.0 1.0 0.00 0.00 0.00 86 1013.9
20260905085513 77 26 0.0 1.0 0.00 0.00 0.00 86 1013.9
20260905085006 77 26 0.0 1.0 0.00 0.00 0.00 86 1013.9
20260905084501 77 26 0.0 1.0 0.00 0.00 0.00 86 1013.9
20260905084003 77 26 0.0 1.0 0.00 0.00 0.00 86 1014.0
20260905083823 77 355 0.0 2.0 0.00 0.00 0.00 86 1014.2
20260905083331 77 342 0.0 2.0 0.00 0.00 0.00 86 1014.0
20260905082503 77 322 0.0 1.0 0.00 0.00 0.00 86 1014.2
20260905082000 77 321 0.0 1.0 0.00 0.00 0.00 86 1014.2
20260905081913 78 322 0.0 0.0 0.00 0.00 0.00 85 1014.2
20260905080948 78 322 0.0 1.0 0.00 0.00 0.00 85 1014.0
20260905080442 78 322 0.0 1.0 0.00 0.00 0.00 85 1014.2
20260905075932 78 321 0.0 1.0 0.00 0.00 0.00 84 1014.3
20260905075436 78 322 0.0 1.0 0.00 0.00 0.00 85 1014.3
20260905074930 78 322 0.0 1.0 0.00 0.00 0.00 85 1014.3
20260905074433 78 302 0.0 0.0 0.00 0.00 0.00 84 1014.4
20260905073940 78 302 0.0 0.0 0.00 0.00 0.00 84 1014.6
20260905073758 78 302 0.0 0.0 0.00 0.00 0.00 84 1014.6
20260905072931 78 302 0.0 0.0 0.00 0.00 0.00 83 1014.5
20260905072431 79 302 0.0 0.0 0.00 0.00 0.00 83 1014.6
20260905072243 79 302 0.0 0.0 0.00 0.00 0.00 83 1014.6
20260905071429 79 302 0.0 0.0 0.00 0.00 0.00 83 1014.6
20260905070926 79 302 0.0 0.0 0.00 0.00 0.00 83 1014.6
20260905070427 79 302 0.0 0.0 0.00 0.00 0.00 82 1014.7
20260905070243 79 302 0.0 0.0 0.00 0.00 0.00 82 1014.7
20260905065422 79 302 0.0 0.0 0.00 0.00 0.00 82 1014.8
20260905064924 79 302 0.0 0.0 0.00 0.00 0.00 81 1014.9
20260905064420 79 302 0.0 1.0 0.00 0.00 0.00 81 1014.9
20260905064247 80 302 0.0 1.0 0.00 0.00 0.00 81 1014.8
20260905063421 80 302 0.0 1.0 0.00 0.00 0.00 81 1015.0
20260905062923 80 302 0.0 1.0 0.00 0.00 0.00 81 1015.0
20260905062416 80 302 0.0 0.0 0.00 0.00 0.00 81 1015.1
20260905061916 80 302 0.0 0.0 0.00 0.00 0.00 80 1015.1
20260905061413 80 302 0.0 0.0 0.00 0.00 0.00 80 1015.2
20260905060917 80 302 0.0 0.0 0.00 0.00 0.00 80 1015.4
20260905060413 80 302 0.0 0.0 0.00 0.00 0.00 79 1015.4
20260905055911 81 302 0.0 0.0 0.00 0.00 0.00 79 1015.4
20260905055411 81 302 0.0 0.0 0.00 0.00 0.00 79 1015.5
20260905054912 81 302 0.0 0.0 0.00 0.00 0.00 78 1015.4
20260905054411 81 302 0.0 1.0 0.00 0.00 0.00 79 1015.6
20260905053910 81 302 0.0 1.0 0.00 0.00 0.00 79 1015.6
20260905053412 81 302 0.0 1.0 0.00 0.00 0.00 78 1015.7
20260905052907 81 324 0.0 1.0 0.00 0.00 0.00 78 1015.6
20260905052408 81 317 0.0 1.0 0.00 0.00 0.00 78 1015.7
20260905051906 81 317 0.0 1.0 0.00 0.00 0.00 78 1015.7
20260905051710 80 317 0.0 1.0 0.00 0.00 0.00 78 1015.7
20260905050912 80 317 0.0 1.0 0.00 0.00 0.00 78 1015.8
20260905050408 80 317 0.0 1.0 0.00 0.00 0.00 78 1015.8
20260905050219 80 317 0.0 1.0 0.00 0.00 0.00 78 1015.8
20260905045407 80 317 0.0 1.0 0.00 0.00 0.00 78 1016.0
20260905044909 81 317 0.0 1.0 0.00 0.00 0.00 79 1016.0
20260905044715 81 317 0.0 0.0 0.00 0.00 0.00 78 1015.9
20260905044221 81 317 0.0 0.0 0.00 0.00 0.00 78 1016.0
20260905043402 81 317 0.0 0.0 0.00 0.00 0.00 77 1016.1
20260905042902 81 317 0.0 0.0 0.00 0.00 0.00 78 1016.0
20260905042402 81 317 0.0 0.0 0.00 0.00 0.00 78 1016.0
20260905041902 81 317 0.0 0.0 0.00 0.00 0.00 78 1016.0
20260905041704 81 317 0.0 0.0 0.00 0.00 0.00 77 1016.0
20260905041221 81 317 0.0 0.0 0.00 0.00 0.00 77 1015.9
20260905040405 81 317 0.0 1.0 0.00 0.00 0.00 77 1015.8
20260905035901 82 317 0.0 1.0 0.00 0.00 0.00 77 1015.8
20260905035354 82 317 0.0 1.0 0.00 0.00 0.00 77 1015.9
20260905034850 82 300 0.0 1.0 0.00 0.00 0.00 76 1015.8
20260905034714 82 300 0.0 0.0 0.00 0.00 0.00 76 1015.7
20260905034216 82 300 0.0 0.0 0.00 0.00 0.00 76 1015.8
20260905033349 82 300 0.0 0.0 0.00 0.00 0.00 76 1015.8
20260905032847 82 300 0.0 0.0 0.00 0.00 0.00 75 1015.8
20260905032348 82 300 0.0 0.0 0.00 0.00 0.00 76 1015.8
20260905031844 83 300 0.0 1.0 0.00 0.00 0.00 75 1015.6
20260905031543 83 300 0.0 0.0 0.00 0.00 0.00 73 1015.7
20260905031458 83 300 0.0 1.0 0.00 0.00 0.00 75 1015.5
20260905030341 83 300 0.0 1.0 0.00 0.00 0.00 73 1015.8
20260905025844 83 300 0.0 1.0 0.00 0.00 0.00 73 1015.7
20260905025344 84 300 0.0 1.0 0.00 0.00 0.00 73 1015.7
20260905024842 84 300 0.0 1.0 0.00 0.00 0.00 72 1015.8
20260905024340 84 300 0.0 0.0 0.00 0.00 0.00 71 1016.0
20260905023842 84 300 0.0 1.0 0.00 0.00 0.00 71 1015.9
20260905023340 84 300 0.0 1.0 0.00 0.00 0.00 71 1016.0
20260905022838 85 300 1.0 1.0 0.00 0.00 0.00 70 1015.9
20260905022333 85 300 1.0 1.0 0.00 0.00 0.00 70 1015.9
20260905021835 85 300 0.0 1.0 0.00 0.00 0.00 70 1015.8
20260905021336 85 300 0.0 0.0 0.00 0.00 0.00 69 1015.8
20260905021143 85 300 0.0 1.0 0.00 0.00 0.00 69 1015.8
20260905020341 85 300 0.0 2.0 0.00 0.00 0.00 69 1015.7
20260905015832 85 300 0.0 2.0 0.00 0.00 0.00 68 1015.8
20260905015333 85 300 0.0 2.0 0.00 0.00 0.00 68 1015.9
20260905015215 86 300 1.0 2.0 0.00 0.00 0.00 68 1015.9
20260905014331 86 5 1.0 2.0 0.00 0.00 0.00 68 1015.9
20260905013838 86 5 1.0 4.0 0.00 0.00 0.00 69 1015.9
20260905013335 86 0 1.0 4.0 0.00 0.00 0.00 69 1015.8
20260905012833 86 318 2.0 3.0 0.00 0.00 0.00 68 1015.7
20260905012333 87 51 2.0 3.0 0.00 0.00 0.00 68 1015.6
20260905011832 87 40 1.0 3.0 0.00 0.00 0.00 67 1015.7
20260905011326 87 63 1.0 3.0 0.00 0.00 0.00 67 1015.6
20260905010827 88 63 0.0 1.0 0.00 0.00 0.00 65 1015.4
20260905010326 88 63 0.0 1.0 0.00 0.00 0.00 65 1015.4
20260905005824 88 63 0.0 0.0 0.00 0.00 0.00 64 1015.3
20260905005322 89 63 0.0 0.0 0.00 0.00 0.00 64 1015.4
20260905004821 89 63 0.0 0.0 0.00 0.00 0.00 63 1015.3
20260905004322 89 63 0.0 0.0 0.00 0.00 0.00 62 1015.4
20260905003819 90 63 0.0 0.0 0.00 0.00 0.00 62 1015.5
20260905003644 90 63 0.0 0.0 0.00 0.00 0.00 61 1015.6
20260905002820 90 63 0.0 0.0 0.00 0.00 0.00 61 1015.7
20260905002612 91 63 0.0 0.0 0.00 0.00 0.00 60 1015.7
20260905001820 91 63 0.0 0.0 0.00 0.00 0.00 59 1015.6
20260905001317 91 63 0.0 0.0 0.00 0.00 0.00 58 1015.6
20260905000814 92 63 0.0 1.0 0.00 0.00 0.00 59 1015.5
20260905000318 92 63 0.0 1.0 0.00 0.00 0.00 59 1015.5
20260904235957 92 63 0.0 0.0 0.00 0.00 0.00 57 1015.4
20260904235923 92 63 0.0 0.0 0.00 0.00 0.00 58 1015.4
20260904234813 93 63 0.0 0.0 0.00 0.00 0.00 56 1015.4
20260904234318 93 63 0.0 0.0 0.00 0.00 0.00 56 1015.4
20260904234112 94 63 0.0 0.0 0.00 0.00 0.00 55 1015.4
20260904233313 94 63 0.0 0.0 0.00 0.00 0.00 55 1015.4
20260904232812 94 63 0.0 1.0 0.00 0.00 0.00 55 1015.3
20260904232318 94 63 0.0 1.0 0.00 0.00 0.00 54 1015.3
20260904231815 95 63 0.0 1.0 0.00 0.00 0.00 54 1015.2
20260904231314 95 63 0.0 1.0 0.00 0.00 0.00 53 1015.0
20260904230817 95 63 0.0 1.0 0.00 0.00 0.00 52 1015.1
20260904230314 96 63 0.0 2.0 0.00 0.00 0.00 52 1015.1
20260904230202 96 173 0.0 1.0 0.00 0.00 0.00 51 1015.0
20260904230157 96 63 0.0 2.0 0.00 0.00 0.00 51 1015.0
20260904224812 97 173 0.0 1.0 0.00 0.00 0.00 50 1014.9
20260904224459 98 211 1.0 2.0 0.00 0.00 0.00 48 1014.9
20260904224414 97 207 1.0 2.0 0.00 0.00 0.00 50 1014.9
20260904223306 98 205 1.0 2.0 0.00 0.00 0.00 48 1014.8
20260904222808 98 350 1.0 3.0 0.00 0.00 0.00 47 1015.0
20260904222552 98 217 1.0 2.0 0.00 0.00 0.00 48 1015.1
20260904222439 98 232 1.0 3.0 0.00 0.00 0.00 48 1015.0
20260904221305 98 200 1.0 2.0 0.00 0.00 0.00 47 1015.2
20260904220807 98 243 1.0 2.0 0.00 0.00 0.00 48 1015.1
20260904220307 98 36 0.0 2.0 0.00 0.00 0.00 47 1015.2
20260904215810 98 11 1.0 2.0 0.00 0.00 0.00 47 1015.1
20260904215307 98 11 1.0 2.0 0.00 0.00 0.00 48 1015.1
20260904214807 98 132 1.0 3.0 0.00 0.00 0.00 48 1015.2
20260904214305 98 174 1.0 3.0 0.00 0.00 0.00 47 1015.1
20260904213803 98 112 1.0 3.0 0.00 0.00 0.00 46 1015.3
20260904213304 98 126 1.0 3.0 0.00 0.00 0.00 48 1015.1
20260904212806 98 40 1.0 3.0 0.00 0.00 0.00 48 1015.1
20260904212306 97 205 1.0 3.0 0.00 0.00 0.00 49 1015.1
20260904211801 97 104 1.0 3.0 0.00 0.00 0.00 50 1015.0
20260904211300 97 127 2.0 3.0 0.00 0.00 0.00 50 1014.9
20260904210803 96 59 2.0 3.0 0.00 0.00 0.00 50 1014.9
20260904210606 97 113 2.0 4.0 0.00 0.00 0.00 50 1014.8
20260904205757 97 147 2.0 4.0 0.00 0.00 0.00 50 1015.0
20260904205250 97 126 2.0 4.0 0.00 0.00 0.00 51 1015.1
20260904204742 97 127 2.0 5.0 0.00 0.00 0.00 49 1015.1
20260904204236 98 130 2.0 5.0 0.00 0.00 0.00 49 1015.1
20260904203733 98 44 1.0 3.0 0.00 0.00 0.00 50 1015.2
20260904203534 98 157 2.0 3.0 0.00 0.00 0.00 48 1015.3
20260904202737 99 44 1.0 4.0 0.00 0.00 0.00 47 1015.3
20260904202233 99 120 1.0 4.0 0.00 0.00 0.00 47 1015.2
20260904201811 99 132 1.0 3.0 0.00 0.00 0.00 46 1015.3
20260904201806 98 83 2.0 3.0 0.00 0.00 0.00 48 1015.3
20260904201750 99 171 1.0 3.0 0.00 0.00 0.00 47 1015.2
20260904200231 100 185 1.0 3.0 0.00 0.00 0.00 46 1015.4
20260904195733 100 72 1.0 3.0 0.00 0.00 0.00 45 1015.5
20260904195231 100 141 1.0 4.0 0.00 0.00 0.00 46 1015.5
20260904195130 100 246 2.0 4.0 0.00 0.00 0.00 46 1015.7
20260904194230 99 208 2.0 4.0 0.00 0.00 0.00 46 1015.9
20260904193731 99 52 1.0 4.0 0.00 0.00 0.00 47 1016.1
20260904193229 99 350 1.0 3.0 0.00 0.00 0.00 48 1016.3
20260904192732 99 288 1.0 3.0 0.00 0.00 0.00 47 1016.4
20260904192447 100 130 1.0 5.0 0.00 0.00 0.00 47 1016.6
20260904192401 100 27 1.0 2.0 0.00 0.00 0.00 46 1016.5
20260904191551 99 355 2.0 5.0 0.00 0.00 0.00 48 1016.6
20260904190755 98 98 1.0 4.0 0.00 0.00 0.00 50 1016.9
20260904190750 98 169 1.0 3.0 0.00 0.00 0.00 49 1016.8
20260904190738 98 328 2.0 5.0 0.00 0.00 0.00 47 1016.8
20260904185206 98 113 1.0 4.0 0.00 0.00 0.00 49 1016.9
20260904184707 98 61 1.0 3.0 0.00 0.00 0.00 49 1017.0
20260904184551 97 127 1.0 2.0 0.00 0.00 0.00 51 1017.1
20260904183706 97 109 1.0 3.0 0.00 0.00 0.00 50 1017.1
20260904183202 96 128 1.0 3.0 0.00 0.00 0.00 52 1017.2
20260904182700 95 271 1.0 3.0 0.00 0.00 0.00 55 1017.2
20260904182203 94 259 1.0 3.0 0.00 0.00 0.00 53 1017.3
20260904182025 94 351 1.0 3.0 0.00 0.00 0.00 55 1017.4
20260904181201 94 203 1.0 3.0 0.00 0.00 0.00 55 1017.3
20260904180708 94 210 0.0 3.0 0.00 0.00 0.00 56 1017.3
20260904180204 94 20 1.0 4.0 0.00 0.00 0.00 56 1017.4
20260904175707 94 59 1.0 4.0 0.00 0.00 0.00 55 1017.6
20260904175203 94 39 1.0 4.0 0.00 0.00 0.00 55 1017.6
20260904174706 95 182 2.0 7.0 0.00 0.00 0.00 55 1017.7
20260904174202 95 260 2.0 9.0 0.00 0.00 0.00 54 1017.8
20260904173701 96 225 1.0 9.0 0.00 0.00 0.00 53 1017.8
20260904173203 96 355 1.0 3.0 0.00 0.00 0.00 54 1017.8
20260904173014 96 205 1.0 3.0 0.00 0.00 0.00 54 1017.8
20260904172200 96 221 1.0 3.0 0.00 0.00 0.00 54 1017.9
20260904171656 96 212 1.0 3.0 0.00 0.00 0.00 56 1017.9
20260904171151 95 178 1.0 4.0 0.00 0.00 0.00 57 1018.0
20260904170642 94 200 1.0 4.0 0.00 0.00 0.00 58 1018.1
20260904170144 94 138 1.0 4.0 0.00 0.00 0.00 60 1018.1
20260904165641 93 43 2.0 4.0 0.00 0.00 0.00 59 1018.1
20260904165142 93 97 1.0 3.0 0.00 0.00 0.00 59 1018.0
20260904164641 93 148 1.0 4.0 0.00 0.00 0.00 60 1018.1
20260904164145 92 135 1.0 4.0 0.00 0.00 0.00 62 1018.1
20260904163640 91 112 1.0 4.0 0.00 0.00 0.00 62 1018.2
20260904163143 91 11 1.0 4.0 0.00 0.00 0.00 63 1018.4
20260904162641 91 225 1.0 4.0 0.00 0.00 0.00 63 1018.6
20260904162141 90 244 1.0 6.0 0.00 0.00 0.00 63 1018.6
20260904161640 90 207 1.0 6.0 0.00 0.00 0.00 64 1018.7
20260904161143 89 12 1.0 6.0 0.00 0.00 0.00 65 1018.7
20260904161017 89 46 1.0 6.0 0.00 0.00 0.00 67 1018.8
20260904160143 89 205 1.0 4.0 0.00 0.00 0.00 68 1018.8
20260904155639 88 285 1.0 4.0 0.00 0.00 0.00 68 1018.8
20260904155138 88 208 1.0 4.0 0.00 0.00 0.00 68 1018.8
20260904154643 88 209 1.0 4.0 0.00 0.00 0.00 69 1018.9
20260904154140 87 98 1.0 4.0 0.00 0.00 0.00 70 1019.0
20260904153639 87 194 1.0 4.0 0.00 0.00 0.00 70 1019.0
20260904153138 87 276 1.0 3.0 0.00 0.00 0.00 70 1019.1
20260904152640 87 169 1.0 5.0 0.00 0.00 0.00 70 1019.0
20260904152138 86 205 2.0 5.0 0.00 0.00 0.00 71 1019.0
20260904151638 86 209 2.0 4.0 0.00 0.00 0.00 71 1019.0
20260904151141 86 264 2.0 4.0 0.00 0.00 0.00 72 1019.1
20260904151108 85 207 2.0 7.0 0.00 0.00 0.00 73 1019.0
20260904150656 86 236 1.0 3.0 0.00 0.00 0.00 72 1019.0
20260904150248 85 80 1.0 7.0 0.00 0.00 0.00 73 1019.1
20260904145527 85 11 2.0 7.0 0.00 0.00 0.00 74 1019.0
20260904144942 84 186 2.0 7.0 0.00 0.00 0.00 74 1019.1
20260904144138 84 235 1.0 4.0 0.00 0.00 0.00 75 1019.1
20260904143637 84 313 1.0 4.0 0.00 0.00 0.00 75 1019.2
20260904143137 84 5 1.0 4.0 0.00 0.00 0.00 75 1019.2
20260904142638 83 176 1.0 4.0 0.00 0.00 0.00 75 1019.1
20260904142142 83 239 2.0 8.0 0.00 0.00 0.00 76 1018.9
20260904141640 83 341 2.0 9.0 0.00 0.00 0.00 76 1018.9
20260904141142 83 232 1.0 9.0 0.00 0.00 0.00 76 1019.0
20260904140635 82 94 2.0 7.0 0.00 0.00 0.00 78 1018.9
20260904140134 82 85 2.0 7.0 0.00 0.00 0.00 79 1018.8
20260904135947 81 239 1.0 3.0 0.00 0.00 0.00 80 1018.8
20260904135137 81 355 1.0 3.0 0.00 0.00 0.00 81 1018.7
20260904134638 81 331 1.0 3.0 0.00 0.00 0.00 80 1018.8
20260904134137 80 57 1.0 3.0 0.00 0.00 0.00 81 1018.8